EW7060 Weather Reports


time (UTC)temp
C
wind
direction
speed
KPH
gust
KPH
rain 1hr
cm
rain 24hr
cm
rain mn
cm
humidity
%
barometer
mb
20260504140602 18 230 1.6 9.7 0.00 0.00 0.00 35 1015.8
20260504130542 16 141 1.6 6.4 0.00 0.00 0.00 45 1016.0
20260504110542 8 270 0.0 0.0 0.00 0.00 0.00 66 1016.7
20260504100543 8 315 0.0 0.0 0.00 0.00 0.00 66 1016.5
20260504081558 9 225 0.0 3.2 0.00 0.00 0.00 61 1016.9
20260504080542 -17 0.0 0.0 0.00 0.00 0.00 1016.8
20260504050543 10 225 0.0 3.2 0.00 0.00 0.00 52 1017.3
20260504045559 10 225 0.0 0.0 0.00 0.00 0.00 51 1017.4
20260504044542 10 225 0.0 0.0 0.00 0.00 0.00 50 1017.5
20260504043558 10 225 0.0 0.0 0.00 0.00 0.00 45 1017.5
20260504042543 10 270 0.0 3.2 0.00 0.00 0.00 46 1017.4
20260504041558 9 270 0.0 0.0 0.00 0.00 0.00 47 1017.3
20260504040543 10 270 0.0 0.0 0.00 0.00 0.00 46 1017.3
20260504035606 9 270 0.0 0.0 0.00 0.00 0.00 46 1017.3
20260504034618 9 270 0.0 0.0 0.00 0.00 0.00 49 1017.4
20260504033557 9 270 0.0 0.0 0.00 0.00 0.00 48 1017.3
20260504032542 10 270 0.0 0.0 0.00 0.00 0.00 46 1017.4
20260504031557 10 270 0.0 1.6 0.00 0.00 0.00 46 1017.3
20260504030542 10 270 0.0 0.0 0.00 0.00 0.00 46 1017.5
20260504025618 9 270 0.0 0.0 0.00 0.00 0.00 48 1017.2
20260504024542 8 270 0.0 1.6 0.00 0.00 0.00 50 1017.3
20260504023557 8 270 0.0 0.0 0.00 0.00 0.00 52 1017.4
20260504022542 8 270 0.0 0.0 0.00 0.00 0.00 52 1017.1
20260504021558 8 270 0.0 0.0 0.00 0.00 0.00 48 1017.0
20260504020542 8 270 0.0 0.0 0.00 0.00 0.00 46 1017.0
20260504015557 8 270 0.0 0.0 0.00 0.00 0.00 48 1016.8
20260504014540 8 270 0.0 0.0 0.00 0.00 0.00 47 1016.7
20260504013557 8 270 0.0 0.0 0.00 0.00 0.00 46 1016.6
20260504012542 9 270 0.0 0.0 0.00 0.00 0.00 45 1016.4
20260504011559 9 270 0.0 0.0 0.00 0.00 0.00 46 1016.4
20260504010542 10 270 0.0 0.0 0.00 0.00 0.00 44 1016.4
20260504005557 10 270 0.0 0.0 0.00 0.00 0.00 41 1016.4
20260504004622 10 270 0.0 0.0 0.00 0.00 0.00 41 1016.4
20260504003558 11 270 0.0 0.0 0.00 0.00 0.00 39 1016.4
20260504002540 11 270 0.0 0.0 0.00 0.00 0.00 38 1016.2
20260504001557 11 270 0.0 0.0 0.00 0.00 0.00 37 1016.2
20260504000542 11 270 0.0 0.0 0.00 0.00 0.00 35 1016.3
20260503235617 12 270 0.0 0.0 0.00 0.00 0.00 33 1016.2
20260503234542 12 270 0.0 0.0 0.00 0.00 0.00 32 1016.1
20260503233558 13 270 0.0 1.6 0.00 0.00 0.00 33 1016.0
20260503232542 13 225 0.0 3.2 0.00 0.00 0.00 32 1016.0
20260503231617 14 270 0.0 3.2 0.00 0.00 0.00 29 1015.8
20260503230541 14 248 1.6 4.8 0.00 0.00 0.00 29 1015.8
20260503225658 15 270 0.0 3.2 0.00 0.00 0.00 28 1015.8
20260503224543 15 206 1.6 3.2 0.00 0.00 0.00 28 1015.7
20260503223557 16 0 0.0 3.2 0.00 0.00 0.00 21 1015.8
20260503222542 16 225 1.6 4.8 0.00 0.00 0.00 21 1015.8
20260503221557 16 135 0.0 1.6 0.00 0.00 0.00 21 1015.8
20260503220541 17 135 1.6 4.8 0.00 0.00 0.00 20 1015.9
20260503215558 17 225 3.2 8.0 0.00 0.00 0.00 21 1015.9
20260503214543 18 235 1.6 3.2 0.00 0.00 0.00 22 1015.9
20260503213617 18 235 1.6 3.2 0.00 0.00 0.00 22 1015.9
20260503212542 19 34 1.6 4.8 0.00 0.00 0.00 21 1016.1
20260503211617 18 164 1.6 4.8 0.00 0.00 0.00 21 1016.1
20260503210542 18 167 1.6 6.4 0.00 0.00 0.00 22 1016.1
20260503205617 18 104 3.2 8.0 0.00 0.00 0.00 22 1016.2
20260503204542 18 352 3.2 9.7 0.00 0.00 0.00 22 1016.2
20260503203557 18 169 3.2 8.0 0.00 0.00 0.00 22 1016.3
20260503202542 18 64 3.2 9.7 0.00 0.00 0.00 22 1016.3
20260503201558 17 106 3.2 4.8 0.00 0.00 0.00 19 1016.3
20260503200542 17 87 1.6 6.4 0.00 0.00 0.00 21 1016.5
20260503195558 17 9 3.2 8.0 0.00 0.00 0.00 20 1016.7
20260503194540 18 166 4.8 12.9 0.00 0.00 0.00 23 1016.9
20260503193618 17 246 3.2 9.7 0.00 0.00 0.00 20 1017.0
20260503192540 16 219 1.6 8.0 0.00 0.00 0.00 21 1017.1
20260503191558 16 10 4.8 8.0 0.00 0.00 0.00 22 1017.4
20260503190540 17 94 3.2 11.3 0.00 0.00 0.00 20 1017.5
20260503185558 17 166 1.6 8.0 0.00 0.00 0.00 21 1017.6
20260503184557 16 32 3.2 6.4 0.00 0.00 0.00 23 1017.7
20260503183558 16 240 3.2 8.0 0.00 0.00 0.00 23 1017.7
20260503182542 16 210 1.6 4.8 0.00 0.00 0.00 24 1017.8
20260503181559 16 205 4.8 11.3 0.00 0.00 0.00 26 1017.7
20260503180621 15 39 3.2 9.7 0.00 0.00 0.00 25 1017.9
20260503175557 15 22 3.2 8.0 0.00 0.00 0.00 24 1017.9
20260503174542 16 49 4.8 12.9 0.00 0.00 0.00 24 1018.1
20260503173558 16 133 4.8 8.0 0.00 0.00 0.00 27 1018.2
20260503172542 14 7 3.2 8.0 0.00 0.00 0.00 28 1018.3
20260503171557 13 344 3.2 8.0 0.00 0.00 0.00 29 1018.4
20260503170541 13 315 4.8 17.7 0.00 0.00 0.00 31 1018.4
20260503150623 11 58 3.2 9.7 0.00 0.00 0.00 34 1019.4